Satellite: RS-30
Catalog number: 32953
Epoch time:      11335.72512290
Element set:     304
Inclination:      082.5034 deg
RA of node:       058.5547 deg
Eccentricity:    0.0019045
Arg of perigee:   024.8784 deg
Mean anomaly:     335.3219 deg
Mean motion:   12.43017696 rev/day
Decay rate:        1.0e-07 rev/day^2
Epoch rev:           15990
Checksum:              282

Satellite: TACSAT-3
Catalog number: 35001
Epoch time:      11335.89431428
Element set:     781
Inclination:      040.4507 deg
RA of node:       228.1772 deg
Eccentricity:    0.0009099
Arg of perigee:   345.5947 deg
Mean anomaly:     014.4639 deg
Mean motion:   15.61716167 rev/day
Decay rate:     8.7793e-04 rev/day^2
Epoch rev:           14316
Checksum:              318

Satellite: PHARMSAT
Catalog number: 35002
Epoch time:      11335.87248291
Element set:     724
Inclination:      040.4703 deg
RA of node:       228.3032 deg
Eccentricity:    0.0013288
Arg of perigee:   019.6320 deg
Mean anomaly:     340.5070 deg
Mean motion:   15.58037379 rev/day
Decay rate:     5.8671e-04 rev/day^2
Epoch rev:           14316
Checksum:              274

Satellite: HAWKSAT1
Catalog number: 35003
Epoch time:      11276.79285837
Element set:     811
Inclination:      040.4398 deg
RA of node:       174.3672 deg
Eccentricity:    0.0011414
Arg of perigee:   274.3918 deg
Mean anomaly:     085.3844 deg
Mean motion:   16.13812532 rev/day
Decay rate:   2.274821e-02 rev/day^2
Epoch rev:           13457
Checksum:              306

Satellite: CP6
Catalog number: 35004
Epoch time:      11247.64656856
Element set:     784
Inclination:      040.4403 deg
RA of node:       342.9642 deg
Eccentricity:    0.0002956
Arg of perigee:   038.0069 deg
Mean anomaly:     322.2231 deg
Mean motion:   16.41039951 rev/day
Decay rate:  1.6152067e-01 rev/day^2
Epoch rev:           13013
Checksum:              285

Satellite: METEOR-M
Catalog number: 35865
Epoch time:      11335.77528592
Element set:     950
Inclination:      098.6850 deg
RA of node:       028.5383 deg
Eccentricity:    0.0001756
Arg of perigee:   277.2301 deg
Mean anomaly:     082.8675 deg
Mean motion:   14.21849105 rev/day
Decay rate:        3.5e-07 rev/day^2
Epoch rev:           11440
Checksum:              305

Satellite: RS-38
Catalog number: 35869
Epoch time:      11335.75408568
Element set:     929
Inclination:      098.6819 deg
RA of node:       028.5403 deg
Eccentricity:    0.0003862
Arg of perigee:   268.6504 deg
Mean anomaly:     091.4231 deg
Mean motion:   14.22039766 rev/day
Decay rate:       1.13e-06 rev/day^2
Epoch rev:           11441
Checksum:              317

Satellite: ARISSAT1
Catalog number: 37772
Epoch time:      11335.64790316
Element set:     368
Inclination:      051.6346 deg
RA of node:       031.2379 deg
Eccentricity:    0.0006304
Arg of perigee:   062.1212 deg
Mean anomaly:     075.5411 deg
Mean motion:   15.84508862 rev/day
Decay rate:    3.01847e-03 rev/day^2
Epoch rev:            1872
Checksum:              287

Satellite: SRMSAT
Catalog number: 37839
Epoch time:      11335.73787526
Element set:      41
Inclination:      019.9589 deg
RA of node:       120.4167 deg
Eccentricity:    0.0018817
Arg of perigee:   196.9207 deg
Mean anomaly:     163.0570 deg
Mean motion:   14.11998671 rev/day
Decay rate:       6.19e-06 rev/day^2
Epoch rev:             716
Checksum:              322

Satellite: JUGNU
Catalog number: 37841
Epoch time:      11334.74464006
Element set:      38
Inclination:      019.9697 deg
RA of node:       127.4083 deg
Eccentricity:    0.0012252
Arg of perigee:   162.7733 deg
Mean anomaly:     197.3112 deg
Mean motion:   14.10092754 rev/day
Decay rate:       2.64e-06 rev/day^2
Epoch rev:             700
Checksum:              269

/EX


_______________________________________________
Via the Keps mailing list courtesy of AMSAT-NA
http://amsat.org/mailman/listinfo/keps

--- ViaMAIL!/WC v1.60d
 * Origin: Chowdanet (401-724-4410) telnet://chowdanet.com  (1:323/120)